Total_Precipitation_Accumulation
0.04 0.04 0.07 0.07 0.07 0.06 0.05 0.04 0.05 0.07 0.06 0.03 0.01 0.02 0.10 0.16 0.18 0.06 0.02 0.00 0.00 0.00 0.00 0.00 0.00 0.00 0.00 0.00 0.00 0.00 0.00 0.00 0.00 0.00 0.00 0.00 0.00 0.00 0.00 0.00 0.00 0.00 0.00 0.00 0.00
0.04 0.04 0.07 0.09 0.09 0.07 0.06 0.05 0.05 0.05 0.05 0.05 0.01 0.01 0.03 0.12 0.20 0.11 0.00 0.00 0.02 0.01 0.00 0.00 0.00 0.00 0.00 0.00 0.00 0.00 0.00 0.00 0.00 0.00 0.00 0.00 0.00 0.00 0.00 0.00 0.00 0.00 0.00 0.00 0.00
0.06 0.06 0.07 0.08 0.12 0.10 0.08 0.05 0.06 0.05 0.05 0.06 0.03 0.00 0.01 0.03 0.09 0.04 0.00 0.05 0.22 0.19 0.01 0.00 0.00 0.00 0.00 0.00 0.00 0.00 0.00 0.00 0.00 0.00 0.00 0.00 0.00 0.00 0.00 0.00 0.00 0.00 0.00 0.00 0.00
0.08 0.09 0.09 0.09 0.11 0.12 0.09 0.08 0.07 0.06 0.06 0.09 0.09 0.00 0.00 0.02 0.04 0.00 0.00 0.01 0.18 0.37 0.03 0.00 0.00 0.00 0.00 0.00 0.00 0.00 0.00 0.00 0.00 0.00 0.00 0.00 0.00 0.00 0.00 0.00 0.00 0.00 0.00 0.00 0.00
0.14 0.14 0.13 0.11 0.10 0.11 0.10 0.12 0.11 0.10 0.09 0.11 0.14 0.01 0.01 0.01 0.01 0.00 0.02 0.01 0.10 0.29 0.13 0.02 0.00 0.00 0.00 0.00 0.00 0.00 0.00 0.00 0.00 0.00 0.00 0.00 0.00 0.00 0.00 0.00 0.00 0.00 0.00 0.00 0.00
0.15 0.14 0.11 0.10 0.10 0.11 0.09 0.09 0.15 0.16 0.12 0.13 0.20 0.04 0.01 0.00 0.00 0.00 0.04 0.02 0.03 0.16 0.19 0.10 0.01 0.00 0.00 0.00 0.00 0.00 0.00 0.00 0.00 0.00 0.00 0.00 0.00 0.00 0.00 0.00 0.00 0.00 0.00 0.00 0.00
0.15 0.16 0.13 0.13 0.14 0.15 0.16 0.18 0.17 0.16 0.16 0.22 0.33 0.05 0.00 0.00 0.00 0.00 0.01 0.02 0.03 0.05 0.20 0.15 0.08 0.03 0.02 0.00 0.00 0.00 0.00 0.00 0.00 0.00 0.00 0.00 0.00 0.00 0.00 0.00 0.00 0.00 0.00 0.00 0.00
0.21 0.18 0.15 0.18 0.18 0.18 0.21 0.21 0.28 0.29 0.31 0.30 0.38 0.11 0.01 0.00 0.00 0.00 0.00 0.00 0.00 0.01 0.11 0.17 0.13 0.02 0.01 0.00 0.00 0.00 0.00 0.00 0.00 0.00 0.00 0.00 0.00 0.00 0.00 0.00 0.00 0.00 0.00 0.00 0.00
0.25 0.21 0.22 0.25 0.28 0.28 0.31 0.34 0.45 0.44 0.48 0.60 0.45 0.08 0.00 0.00 0.00 0.00 0.00 0.00 0.01 0.04 0.06 0.10 0.23 0.07 0.01 0.01 0.00 0.00 0.00 0.00 0.00 0.00 0.00 0.00 0.00 0.00 0.00 0.00 0.00 0.00 0.00 0.00 0.00
0.26 0.22 0.26 0.29 0.35 0.33 0.44 0.54 0.78 0.76 0.66 1.13 0.46 0.11 0.01 0.00 0.00 0.00 0.00 0.00 0.03 0.05 0.08 0.10 0.23 0.22 0.05 0.02 0.00 0.00 0.00 0.00 0.00 0.00 0.00 0.00 0.00 0.00 0.00 0.00 0.00 0.00 0.00 0.00 0.00
0.25 0.25 0.31 0.30 0.33 0.49 0.82 1.02 1.12 1.26 0.93 0.63 0.22 0.04 0.00 0.00 0.00 0.00 0.00 0.01 0.03 0.04 0.01 0.02 0.02 0.06 0.07 0.00 0.00 0.00 0.00 0.00 0.00 0.00 0.00 0.00 0.00 0.00 0.00 0.00 0.00 0.00 0.00 0.00 0.00
0.22 0.23 0.25 0.29 0.35 0.68 0.92 0.96 0.66 0.71 0.71 0.28 0.15 0.05 0.00 0.00 0.00 0.00 0.00 0.00 0.02 0.01 0.00 0.01 0.00 0.00 0.01 0.00 0.00 0.00 0.00 0.00 0.00 0.00 0.00 0.00 0.00 0.00 0.00 0.00 0.00 0.00 0.00 0.00 0.00
0.22 0.23 0.31 0.49 0.51 0.98 0.72 0.43 0.39 0.75 0.65 0.35 0.24 0.06 0.00 0.00 0.00 0.00 0.00 0.00 0.00 0.00 0.00 0.00 0.00 0.00 0.00 0.00 0.00 0.00 0.00 0.00 0.00 0.00 0.00 0.00 0.00 0.00 0.00 0.00 0.00 0.00 0.00 0.00 0.00
0.32 0.37 0.50 0.68 1.13 0.82 0.65 0.25 0.48 0.90 0.67 0.42 0.31 0.08 0.01 0.02 0.01 0.00 0.00 0.00 0.00 0.00 0.00 0.01 0.00 0.00 0.00 0.00 0.00 0.00 0.00 0.00 0.00 0.01 0.00 0.00 0.00 0.00 0.00 0.00 0.00 0.00 0.00 0.00 0.00
0.58 0.68 0.69 0.91 1.27 0.72 0.68 0.43 0.62 1.00 0.71 0.36 0.21 0.07 0.03 0.01 0.00 0.01 0.00 0.00 0.01 0.00 0.01 0.02 0.00 0.00 0.00 0.00 0.00 0.00 0.00 0.00 0.01 0.01 0.01 0.00 0.02 0.00 0.00 0.00 0.00 0.00 0.00 0.00 0.00
0.54 0.56 0.79 0.88 0.93 0.65 0.65 0.75 0.99 1.03 0.82 0.63 0.15 0.10 0.09 0.04 0.02 0.01 0.01 0.03 0.04 0.06 0.06 0.01 0.00 0.00 0.00 0.00 0.00 0.01 0.01 0.02 0.04 0.07 0.10 0.00 0.00 0.00 0.00 0.00 0.00 0.00 0.00 0.00 0.00
0.46 0.60 1.00 0.96 0.72 0.69 1.24 1.03 1.10 0.57 0.59 0.33 0.10 0.06 0.05 0.03 0.03 0.03 0.03 0.05 0.07 0.09 0.11 0.09 0.03 0.00 0.00 0.00 0.00 0.04 0.17 0.18 0.18 0.20 0.05 0.00 0.00 0.00 0.00 0.00 0.00 0.00 0.00 0.00 0.00
0.63 0.58 1.06 1.08 0.92 0.78 1.69 0.99 0.48 0.16 0.31 0.13 0.02 0.05 0.04 0.02 0.03 0.03 0.04 0.04 0.03 0.09 0.15 0.09 0.05 0.02 0.01 0.00 0.01 0.02 0.08 0.22 0.07 0.00 0.00 0.00 0.00 0.00 0.00 0.00 0.00 0.00 0.00 0.00 0.00
0.42 0.63 1.65 1.19 1.17 1.18 1.29 0.80 0.33 0.25 0.18 0.10 0.09 0.05 0.07 0.02 0.02 0.03 0.03 0.01 0.00 0.01 0.05 0.04 0.01 0.00 0.00 0.00 0.04 0.11 0.19 0.13 0.18 0.14 0.16 0.01 0.00 0.00 0.00 0.00 0.00 0.00 0.00 0.00 0.00
0.47 0.59 1.60 1.26 0.93 1.52 1.14 0.62 0.28 0.14 0.02 0.01 0.08 0.03 0.03 0.02 0.02 0.02 0.01 0.00 0.00 0.00 0.00 0.00 0.01 0.00 0.00 0.01 0.03 0.05 0.04 0.13 0.41 0.21 0.07 0.00 0.00 0.00 0.00 0.00 0.00 0.00 0.00 0.00 0.00
0.46 1.14 1.17 1.47 1.05 1.64 1.32 0.63 0.34 0.06 0.01 0.00 0.00 0.01 0.00 0.00 0.00 0.00 0.00 0.00 0.00 0.00 0.00 0.00 0.01 0.00 0.01 0.01 0.01 0.02 0.12 0.14 0.10 0.03 0.02 0.00 0.00 0.00 0.00 0.00 0.00 0.00 0.00 0.00 0.00
0.57 1.02 1.12 1.58 1.62 1.33 0.96 0.62 0.26 0.07 0.01 0.00 0.00 0.01 0.01 0.00 0.01 0.00 0.00 0.00 0.00 0.00 0.00 0.00 0.06 0.03 0.00 0.00 0.01 0.03 0.03 0.06 0.21 0.05 0.13 0.16 0.05 0.00 0.00 0.00 0.00 0.01 0.02 0.01 0.00
1.01 1.08 1.51 0.99 0.70 0.63 0.73 0.32 0.10 0.04 0.02 0.03 0.01 0.01 0.01 0.02 0.02 0.00 0.00 0.00 0.00 0.00 0.00 0.04 0.16 0.10 0.06 0.16 0.17 0.25 0.08 0.14 0.25 0.56 0.48 0.28 0.11 0.00 0.00 0.00 0.00 0.00 0.01 0.01 0.01
0.92 1.05 2.20 1.37 0.39 0.34 0.33 0.26 0.12 0.02 0.02 0.03 0.03 0.03 0.04 0.04 0.02 0.00 0.00 0.00 0.00 0.00 0.00 0.07 0.10 0.04 0.10 0.27 0.47 0.40 0.14 0.22 0.82 1.09 0.26 0.22 0.04 0.01 0.02 0.04 0.02 0.00 0.01 0.03 0.02
0.57 0.35 0.52 0.51 0.37 0.17 0.12 0.08 0.05 0.01 0.01 0.06 0.05 0.03 0.05 0.05 0.02 0.02 0.00 0.00 0.00 0.00 0.03 0.13 0.15 0.09 0.08 0.06 0.34 0.40 0.29 0.30 0.73 0.48 0.72 0.28 0.14 0.03 0.03 0.05 0.02 0.01 0.03 0.06 0.04
0.48 0.25 0.09 0.04 0.04 0.07 0.07 0.04 0.04 0.01 0.02 0.03 0.03 0.02 0.06 0.03 0.01 0.00 0.00 0.00 0.00 0.00 0.05 0.20 0.34 0.33 0.29 0.18 0.23 0.44 0.35 0.45 0.39 0.33 0.43 0.23 0.22 0.04 0.01 0.01 0.02 0.11 0.15 0.08 0.05
0.56 0.29 0.14 0.09 0.04 0.04 0.03 0.01 0.02 0.02 0.01 0.01 0.04 0.08 0.07 0.01 0.00 0.00 0.00 0.00 0.01 0.04 0.16 0.28 0.32 0.54 0.37 0.32 0.34 0.72 0.65 0.49 0.28 0.28 0.33 0.36 0.11 0.04 0.07 0.06 0.17 0.16 0.09 0.10 0.06